Regional Weather Roundup
Issued by NWS

Home | Current Version | Previous Version | Text Only | Print | Product List | Glossary Off
Versions: 1 2 3 4 5 6 7 8 9 10 11 12 13 14 15 16 17 18 19 20 21 22 23 24 25 26 27 28 29 30 31 32 33 34 35 36 37 38 39 40 41 42 43 44 45 46 47 48 49 50

000
ASUS43 KBIS 221310
RWRND

NORTH DAKOTA REGIONAL WEATHER ROUNDUP
NATIONAL WEATHER SERVICE BISMARCK ND
800 AM CDT FRI SEP 22 2017

NOTE: "FAIR" INDICATES FEW OR NO CLOUDS BELOW 12,000 FEET WITH NO
SIGNIFICANT WEATHER AND/OR OBSTRUCTIONS TO VISIBILITY.


NDZ001>003-009>011-017-221400-
NORTHWEST NORTH DAKOTA

CITY           SKY/WX    TMP DP  RH WIND       PRES   REMARKS
WILLISTON      CLOUDY    46  39  76 N8        29.97R
MINOT          MOCLDY    46  40  79 N10       29.91S
MINOT AFB      MOCLDY    46  39  78 N10       29.89F
$$

NDZ018>021-031>035-040>046-221400-
SOUTHWEST NORTH DAKOTA

CITY           SKY/WX    TMP DP  RH WIND       PRES   REMARKS
BISMARCK       CLOUDY    54  43  66 NE18G24   29.79F
DICKINSON      CLOUDY    49  38  65 N20       29.84F
GARRISON         N/A     49  40  71 N14G21    29.88R
HETTINGER ARPT CLOUDY    50  36  58 NE17      29.81R
$$

NDZ004>008-012>016-024-026-027-054-221400-
NORTHEAST NORTH DAKOTA

CITY           SKY/WX    TMP DP  RH WIND       PRES   REMARKS
GRAND FORKS    CLOUDY    58  52  80 N18       29.82S
GRND FRKS AFB  CLOUDY    56  50  81 NE15G21   29.83S
DEVILS LAKE    PTCLDY    51  45  79 N17G24    29.84F
$$

NDZ022-023-025-028>030-036>039-047>053-221400-
SOUTHEAST NORTH DAKOTA

CITY           SKY/WX    TMP DP  RH WIND       PRES   REMARKS
FARGO          CLOUDY    63  62  97 N12       29.75S
JAMESTOWN      CLOUDY    58  49  72 NE17G26   29.77R
$$




USA.gov is the U.S. government's official web portal to all federal, state and local government web resources and services.